Regional Weather Roundup
Issued by NWS

Home | Current Version | Previous Version | Graphics & Text | Print | Product List | Glossary On
Versions: 1 2 3 4 5 6 7 8 9 10 11 12 13 14 15 16 17 18 19 20 21 22 23 24 25 26 27 28 29 30 31 32 33 34 35 36 37 38 39 40 41 42 43 44 45 46 47 48 49 50
000
ASUS45 KCYS 271410
RWRWY

WYOMING REGIONAL WEATHER ROUNDUP
NATIONAL WEATHER SERVICE CHEYENNE WY
800 AM MDT FRI MAR 27 2015

NOTE:  "FAIR" INDICATES FEW OR NO CLOUDS BELOW 12,000 FEET
WITH NO SIGNIFICANT WEATHER AND/OR OBSTRUCTIONS TO VISIBILITY.

WYZ001-271500-
YELLOWSTONE NATIONAL PARK

CITY           SKY/WX    TMP DP  RH WIND       PRES   REMARKS
LK YELLOWSTONE   N/A     23  20  88 CALM      30.37R
W YELLOWSTONE  NOT AVBL

$$
WYZ002>013-054>058-071-098>099-271500-
NORTHERN WYOMING

CITY           SKY/WX    TMP DP  RH WIND       PRES   REMARKS
JACKSON        NOT AVBL
CODY           FAIR      54  30  40 W8        30.17R
GREYBULL       FAIR      35  30  82 SE5       30.16R WCI  31
WORLAND        FAIR      40  30  67 SW8       30.16R WCI  34
SHERIDAN       FAIR      47  35  63 SW3       30.11S
BUFFALO        FAIR      47  34  60 N10       30.14R
GILLETTE       CLOUDY    46  39  76 W12       30.09F
HULETT         FAIR      43  37  81 SW8       30.08S
NEWCASTLE      FAIR      36  34  93 NW5       30.10F WCI  32

$$
WYZ014>020-022>026-101>103-271500-
CENTRAL WYOMING

CITY           SKY/WX    TMP DP  RH WIND       PRES   REMARKS
BIG PINEY      FAIR      28  24  85 SW3       30.33R
PINEDALE       FAIR      34  28  80 NW7       30.32S WCI  28
DUBOIS         FAIR      39  28  65 NW17G23   30.29F WCI  30
LANDER         FAIR      42  25  50 CALM      30.20R
RIVERTON       FAIR      47  29  49 NW10      30.20R
CASPER         PTSUNNY   44  30  57 SW16      30.19R
DOUGLAS        PTSUNNY   46  32  58 NW7       30.17R

$$
WYZ021-027>030-104>119-271500-
SOUTHERN WYOMING

CITY           SKY/WX    TMP DP  RH WIND       PRES   REMARKS
EVANSTON       FAIR      33  25  72 SW7       30.36S WCI  27
KEMMERER       FAIR      36  30  80 W7        30.36R WCI  30
FORT BRIDGER   FAIR      38  28  67 W10       30.37S WCI  31
ROCK SPRINGS   FAIR      39  28  64 W7        30.32R WCI  34
DIXON          FAIR      31  28  86 CALM      30.36S
RAWLINS        FAIR      37  28  70 SW12      30.29R WCI  29
SARATOGA       FAIR      32  28  86 MISG      30.31R
LARAMIE        FAIR      35  27  72 W8        30.23R WCI  29
CHEYENNE       FAIR      45  28  51 NW13G22   30.18R
TORRINGTON     CLOUDY    39  32  76 W6        30.14S WCI  35
PINE BLUFFS    PTSUNNY   41  32  70 CALM      30.18R

$$



USA.gov is the U.S. government's official web portal to all federal, state and local government web resources and services.